GW7363 Weather Reports


time (UTC)temp
C
wind
direction
speed
KPH
gust
KPH
rain 1hr
cm
rain 24hr
cm
rain mn
cm
humidity
%
barometer
mb
20260509151809 11 14 1.6 1.6 0.00 0.00 0.00 59 1020.7
20260509151304 11 14 3.2 3.2 0.00 0.00 0.00 60 1020.7
20260509150804 10 14 1.6 1.6 0.00 0.00 0.00 62 1020.7
20260509150301 10 13 3.2 3.2 0.00 0.00 0.00 64 1020.7
20260509145757 10 14 0.0 0.0 0.00 0.00 0.00 65 1021.3
20260509145257 10 14 3.2 3.2 0.00 0.00 0.00 65 1020.9
20260509144754 10 14 0.0 0.0 0.00 0.00 0.00 64 1020.8
20260509144251 10 14 1.6 1.6 0.00 0.00 0.00 64 1020.8
20260509143748 10 14 0.0 0.0 0.00 0.00 0.00 62 1020.8
20260509143246 10 14 0.0 0.0 0.00 0.00 0.00 62 1020.9
20260509142741 9 15 0.0 0.0 0.00 0.00 0.00 64 1020.9
20260509142238 8 15 1.6 1.6 0.00 0.00 0.00 67 1021.0
20260509141733 8 350 1.6 0.0 0.00 0.00 0.00 69 1021.0
20260509141231 7 350 1.6 1.6 0.00 0.00 0.00 69 1021.0
20260509140728 7 349 0.0 0.0 0.00 0.00 0.00 70 1020.9
20260509140225 7 349 0.0 0.0 0.00 0.00 0.00 70 1020.8
20260509135722 7 349 0.0 0.0 0.00 0.00 0.00 72 1020.9
20260509135220 7 349 0.0 1.6 0.00 0.00 0.00 72 1020.8
20260509134717 7 349 0.0 0.0 0.00 0.00 0.00 72 1020.8
20260509134214 7 349 0.0 0.0 0.00 0.00 0.00 73 1020.8
20260509133711 7 349 0.0 0.0 0.00 0.00 0.00 72 1020.6
20260509133208 7 349 0.0 0.0 0.00 0.00 0.00 72 1020.8
20260509132707 7 349 0.0 0.0 0.00 0.00 0.00 71 1020.8
20260509132205 7 348 0.0 0.0 0.00 0.00 0.00 71 1020.8
20260509131700 7 336 0.0 0.0 0.00 0.00 0.00 70 1020.6
20260509131158 7 336 3.2 3.2 0.00 0.00 0.00 70 1020.6
20260509130653 7 326 3.2 3.2 0.00 0.00 0.00 69 1020.7
20260509130149 7 320 3.2 3.2 0.00 0.00 0.00 69 1020.5
20260509125646 7 305 3.2 4.8 0.00 0.00 0.00 69 1020.5
20260509125143 7 324 3.2 4.8 0.00 0.00 0.00 68 1020.5
20260509124640 8 322 3.2 3.2 0.00 0.00 0.00 67 1020.3
20260509124137 7 333 1.6 1.6 0.00 0.00 0.00 68 1020.4
20260509123634 7 335 0.0 0.0 0.00 0.00 0.00 68 1020.4
20260509123131 7 335 1.6 3.2 0.00 0.00 0.00 68 1020.4
20260509122627 8 335 0.0 0.0 0.00 0.00 0.00 68 1020.3
20260509122124 8 335 0.0 0.0 0.00 0.00 0.00 67 1020.5
20260509121620 8 15 0.0 0.0 0.00 0.00 0.00 68 1020.4
20260509121119 8 352 3.2 3.2 0.00 0.00 0.00 67 1020.3
20260509120616 8 352 0.0 0.0 0.00 0.00 0.00 67 1020.5
20260509120115 7 352 0.0 0.0 0.00 0.00 0.00 68 1020.4
20260509115611 7 353 0.0 0.0 0.00 0.00 0.00 67 1020.4
20260509115109 7 350 0.0 1.6 0.00 0.00 0.00 69 1020.3
20260509114607 7 349 1.6 1.6 0.00 0.00 0.00 70 1020.1
20260509114106 7 350 0.0 0.0 0.00 0.00 0.00 70 1020.3
20260509113603 7 350 0.0 0.0 0.00 0.00 0.00 69 1020.3
20260509113101 7 350 0.0 0.0 0.00 0.00 0.00 68 1020.2
20260509112557 7 350 0.0 0.0 0.00 0.00 0.00 68 1020.3
20260509112054 7 347 0.0 0.0 0.00 0.00 0.00 68 1020.1
20260509111551 7 345 1.6 1.6 0.00 0.00 0.00 68 1020.2
20260509111048 7 330 3.2 3.2 0.00 0.00 0.00 69 1020.2
20260509110545 7 330 0.0 0.0 0.00 0.00 0.00 69 1020.0
20260509110042 7 330 0.0 0.0 0.00 0.00 0.00 69 1020.1
20260509105540 7 330 0.0 0.0 0.00 0.00 0.00 68 1020.1
20260509105038 7 330 0.0 0.0 0.00 0.00 0.00 69 1020.2
20260509104534 7 330 0.0 0.0 0.00 0.00 0.00 68 1020.2
20260509104031 7 329 0.0 0.0 0.00 0.00 0.00 68 1020.2
20260509103529 7 329 0.0 0.0 0.00 0.00 0.00 68 1020.1
20260509103027 8 329 0.0 0.0 0.00 0.00 0.00 67 1020.2
20260509102524 8 329 1.6 1.6 0.00 0.00 0.00 66 1020.1
20260509102021 8 329 0.0 0.0 0.00 0.00 0.00 66 1019.9
20260509101517 8 329 0.0 0.0 0.00 0.00 0.00 65 1020.0
20260509101014 8 329 0.0 0.0 0.00 0.00 0.00 65 1020.2
20260509100512 8 329 0.0 0.0 0.00 0.00 0.00 66 1019.7
20260509100009 8 322 0.0 0.0 0.00 0.00 0.00 65 1019.7
20260509095505 8 322 0.0 0.0 0.00 0.00 0.00 64 1019.7
20260509095003 9 322 0.0 0.0 0.00 0.00 0.00 63 1019.6
20260509094459 9 321 0.0 0.0 0.00 0.00 0.00 63 1019.5
20260509093956 9 319 0.0 0.0 0.00 0.00 0.00 62 1019.6
20260509093454 9 343 1.6 1.6 0.00 0.00 0.00 61 1019.5
20260509092951 9 321 4.8 6.4 0.00 0.00 0.00 62 1019.5
20260509092449 10 316 3.2 3.2 0.00 0.00 0.00 61 1019.3
20260509091948 10 321 4.8 4.8 0.00 0.00 0.00 61 1019.3
20260509091444 9 312 3.2 4.8 0.00 0.00 0.00 61 1019.5
20260509090941 10 334 4.8 4.8 0.00 0.00 0.00 61 1019.6
20260509090438 10 305 3.2 4.8 0.00 0.00 0.00 61 1019.5
20260509085936 10 323 3.2 4.8 0.00 0.00 0.00 59 1019.4
20260509085433 10 333 4.8 4.8 0.00 0.00 0.00 58 1019.5
20260509084929 10 324 3.2 3.2 0.00 0.00 0.00 57 1019.5
20260509084426 11 344 3.2 3.2 0.00 0.00 0.00 56 1019.9
20260509083924 11 333 3.2 4.8 0.00 0.00 0.00 56 1019.6
20260509083420 11 329 3.2 3.2 0.00 0.00 0.00 55 1019.6
20260509082917 11 330 4.8 4.8 0.00 0.00 0.00 55 1019.6
20260509082415 11 337 4.8 4.8 0.00 0.00 0.00 55 1019.5
20260509081911 11 329 6.4 9.7 0.00 0.00 0.00 55 1019.6
20260509081409 11 329 8.0 11.3 0.00 0.00 0.00 55 1019.7
20260509080906 11 321 4.8 6.4 0.00 0.00 0.00 54 1019.7
20260509080404 11 321 9.7 12.9 0.00 0.00 0.00 55 1019.6
20260509075902 11 334 4.8 6.4 0.00 0.00 0.00 54 1019.5
20260509075358 11 332 6.4 6.4 0.00 0.00 0.00 53 1019.5
20260509074856 11 319 6.4 9.7 0.00 0.00 0.00 53 1019.5
20260509074354 11 332 4.8 4.8 0.00 0.00 0.00 52 1019.4
20260509073849 11 329 3.2 4.8 0.00 0.00 0.00 51 1019.7
20260509073346 12 334 3.2 4.8 0.00 0.00 0.00 51 1019.6
20260509072843 12 334 4.8 4.8 0.00 0.00 0.00 50 1019.4
20260509072339 12 342 1.6 1.6 0.00 0.00 0.00 50 1019.3
20260509071836 12 340 6.4 6.4 0.00 0.00 0.00 50 1019.4
20260509071333 12 341 3.2 3.2 0.00 0.00 0.00 49 1019.4
20260509070830 12 339 4.8 4.8 0.00 0.00 0.00 49 1019.3
20260509070327 12 331 3.2 3.2 0.00 0.00 0.00 48 1019.2
20260509065823 12 346 3.2 3.2 0.00 0.00 0.00 47 1019.4
20260509065319 12 340 4.8 4.8 0.00 0.00 0.00 47 1019.3
20260509064815 12 352 3.2 4.8 0.00 0.00 0.00 46 1019.2
20260509064313 12 344 6.4 6.4 0.00 0.00 0.00 46 1019.2
20260509063811 13 356 3.2 4.8 0.00 0.00 0.00 45 1018.9
20260509063306 13 344 3.2 3.2 0.00 0.00 0.00 45 1019.0
20260509062804 13 344 3.2 3.2 0.00 0.00 0.00 44 1019.0
20260509062301 12 342 3.2 3.2 0.00 0.00 0.00 45 1019.2
20260509061758 12 6 0.0 0.0 0.00 0.00 0.00 46 1019.0
20260509061256 12 6 0.0 0.0 0.00 0.00 0.00 47 1019.1
20260509060753 12 6 1.6 1.6 0.00 0.00 0.00 48 1018.9
20260509060249 11 6 1.6 1.6 0.00 0.00 0.00 49 1019.0
20260509055745 11 6 0.0 0.0 0.00 0.00 0.00 49 1018.9
20260509055241 11 6 0.0 0.0 0.00 0.00 0.00 49 1019.0
20260509054738 12 6 0.0 0.0 0.00 0.00 0.00 48 1019.0
20260509054235 12 6 0.0 0.0 0.00 0.00 0.00 46 1018.7
20260509053733 13 6 0.0 0.0 0.00 0.00 0.00 45 1018.9
20260509053229 13 6 0.0 0.0 0.00 0.00 0.00 43 1018.7
20260509052728 13 6 1.6 1.6 0.00 0.00 0.00 43 1018.4
20260509052225 13 347 3.2 3.2 0.00 0.00 0.00 44 1018.4
20260509051723 12 45 1.6 1.6 0.00 0.00 0.00 46 1018.6
20260509051220 12 45 0.0 0.0 0.00 0.00 0.00 45 1018.4
20260509050717 13 45 0.0 0.0 0.00 0.00 0.00 45 1018.4
20260509050213 13 44 0.0 0.0 0.00 0.00 0.00 44 1018.6
20260509045711 13 44 0.0 0.0 0.00 0.00 0.00 43 1018.2
20260509045208 13 43 3.2 3.2 0.00 0.00 0.00 41 1018.4
20260509044705 13 153 1.6 1.6 0.00 0.00 0.00 42 1017.9
20260509044203 13 138 1.6 1.6 0.00 0.00 0.00 42 1018.0
20260509043658 13 28 0.0 1.6 0.00 0.00 0.00 42 1017.9
20260509043154 15 28 0.0 0.0 0.00 0.00 0.00 42 1018.0
20260509042651 15 24 1.6 1.6 0.00 0.00 0.00 40 1017.9
20260509042147 15 23 1.6 1.6 0.00 0.00 0.00 38 1017.8
20260509041644 15 2 0.0 0.0 0.00 0.00 0.00 38 1017.7
20260509041141 15 327 0.0 0.0 0.00 0.00 0.00 38 1017.8
20260509040640 15 338 0.0 1.6 0.00 0.00 0.00 38 1017.9
20260509040136 15 321 4.8 6.4 0.00 0.00 0.00 37 1017.7
20260509035633 16 329 4.8 4.8 0.00 0.00 0.00 37 1017.8
20260509035130 16 287 8.0 9.7 0.00 0.00 0.00 36 1017.6
20260509034628 16 344 3.2 3.2 0.00 0.00 0.00 36 1017.5
20260509034124 16 333 4.8 4.8 0.00 0.00 0.00 35 1017.4
20260509033621 16 322 4.8 4.8 0.00 0.00 0.00 35 1017.5
20260509033118 16 341 6.4 9.7 0.00 0.00 0.00 34 1017.1
20260509032615 16 352 6.4 9.7 0.00 0.00 0.00 34 1017.3
20260509032112 16 352 4.8 6.4 0.00 0.00 0.00 33 1016.8
20260509031610 17 355 3.2 3.2 0.00 0.00 0.00 32 1017.0
20260509031108 17 356 4.8 6.4 0.00 0.00 0.00 31 1016.8
20260509030605 17 295 11.3 16.1 0.00 0.00 0.00 31 1016.7
20260509025558 17 338 8.0 9.7 0.00 0.00 0.00 30 1016.6
20260509025054 17 0 8.0 11.3 0.00 0.00 0.00 30 1016.5
20260509024550 17 315 12.9 16.1 0.00 0.00 0.00 29 1016.1
20260509024046 18 338 9.7 11.3 0.00 0.00 0.00 29 1016.2
20260509023544 18 333 14.5 17.7 0.00 0.00 0.00 28 1016.2
20260509023041 18 309 16.1 17.7 0.00 0.00 0.00 28 1016.2
20260509022537 18 341 11.3 16.1 0.00 0.00 0.00 28 1016.1
20260509022035 18 305 8.0 11.3 0.00 0.00 0.00 29 1016.2
20260509021532 18 325 14.5 20.9 0.00 0.00 0.00 29 1016.0
20260509021029 19 328 8.0 11.3 0.00 0.00 0.00 29 1016.0
20260509020527 19 321 9.7 11.3 0.00 0.00 0.00 28 1015.7
20260509020023 19 305 9.7 11.3 0.00 0.00 0.00 28 1015.6
20260509015523 19 282 16.1 20.9 0.00 0.00 0.00 28 1015.6
20260509015019 19 313 14.5 17.7 0.00 0.00 0.00 27 1015.6
20260509014516 20 297 19.3 25.7 0.00 0.00 0.00 26 1015.4
20260509014012 20 331 11.3 12.9 0.00 0.00 0.00 25 1015.6
20260509013509 20 260 19.3 22.5 0.00 0.00 0.00 24 1015.6
20260509013005 20 333 14.5 16.1 0.00 0.00 0.00 24 1015.5
20260509012502 20 346 14.5 20.9 0.00 0.00 0.00 23 1015.6
20260509011959 20 341 8.0 12.9 0.00 0.00 0.00 23 1015.5
20260509011456 20 285 12.9 16.1 0.00 0.00 0.00 22 1015.5
20260509010954 20 285 12.9 24.1 0.00 0.00 0.00 22 1015.6
20260509010451 20 318 9.7 12.9 0.00 0.00 0.00 21 1015.7
20260509005948 20 306 11.3 16.1 0.00 0.00 0.00 20 1015.4
20260509005446 20 313 4.8 9.7 0.00 0.00 0.00 21 1015.6
20260509004946 21 353 11.3 12.9 0.00 0.00 0.00 20 1015.6
20260509004443 21 304 14.5 17.7 0.00 0.00 0.00 20 1015.7
20260509003941 21 338 8.0 11.3 0.00 0.00 0.00 21 1015.6
20260509003438 21 300 9.7 12.9 0.00 0.00 0.00 21 1015.6
20260509002935 21 341 17.7 20.9 0.00 0.00 0.00 21 1015.6
20260509002433 21 335 11.3 14.5 0.00 0.00 0.00 22 1015.4
20260509001930 21 304 11.3 12.9 0.00 0.00 0.00 23 1015.6
20260509001426 21 355 6.4 9.7 0.00 0.00 0.00 21 1015.6
20260509000923 22 261 12.9 16.1 0.00 0.00 0.00 22 1015.5
20260509000421 21 311 4.8 6.4 0.00 0.00 0.00 20 1015.3
20260508235916 21 323 8.0 11.3 0.00 0.00 0.00 22 1015.3
20260508235415 21 326 9.7 12.9 0.00 0.00 0.00 23 1015.2
20260508234911 22 304 17.7 22.5 0.00 0.00 0.00 23 1015.3
20260508234408 22 332 8.0 16.1 0.00 0.00 0.00 24 1015.2
20260508233906 22 264 11.3 12.9 0.00 0.00 0.00 24 1015.3
20260508233405 22 325 1.6 3.2 0.00 0.00 0.00 26 1015.3
20260508232902 22 321 9.7 12.9 0.00 0.00 0.00 26 1015.3
20260508232358 22 308 12.9 14.5 0.00 0.00 0.00 28 1015.4
20260508231856 22 328 9.7 14.5 0.00 0.00 0.00 28 1015.4
20260508231352 21 338 12.9 14.5 0.00 0.00 0.00 29 1015.4
20260508230849 22 324 9.7 14.5 0.00 0.00 0.00 29 1015.3
20260508230346 22 321 12.9 17.7 0.00 0.00 0.00 28 1015.2
20260508225843 22 336 11.3 14.5 0.00 0.00 0.00 28 1015.2
20260508225340 22 328 3.2 4.8 0.00 0.00 0.00 29 1015.2
20260508224838 22 340 8.0 12.9 0.00 0.00 0.00 28 1015.3
20260508224335 22 354 9.7 11.3 0.00 0.00 0.00 28 1015.4
20260508223832 22 276 11.3 12.9 0.00 0.00 0.00 29 1015.4
20260508223330 22 324 11.3 16.1 0.00 0.00 0.00 27 1015.2
20260508222827 22 356 6.4 9.7 0.00 0.00 0.00 26 1015.5
20260508222324 21 324 6.4 6.4 0.00 0.00 0.00 27 1015.4
20260508221821 21 334 8.0 9.7 0.00 0.00 0.00 28 1015.6
20260508221316 22 359 6.4 6.4 0.00 0.00 0.00 28 1015.4
20260508220813 22 328 6.4 6.4 0.00 0.00 0.00 26 1015.4
20260508220309 21 332 11.3 12.9 0.00 0.00 0.00 25 1015.5
20260508215806 21 323 11.3 16.1 0.00 0.00 0.00 24 1015.3
20260508215306 21 302 12.9 14.5 0.00 0.00 0.00 25 1015.4
20260508214800 22 323 12.9 14.5 0.00 0.00 0.00 24 1015.3
20260508214257 22 328 6.4 6.4 0.00 0.00 0.00 23 1015.2
20260508213753 23 333 4.8 4.8 0.00 0.00 0.00 23 1015.2
20260508213250 23 24 1.6 1.6 0.00 0.00 0.00 23 1015.2
20260508212747 22 21 3.2 3.2 0.00 0.00 0.00 23 1015.1
20260508212243 22 33 3.2 3.2 0.00 0.00 0.00 23 1015.1
20260508211739 22 340 6.4 11.3 0.00 0.00 0.00 25 1015.0
20260508211235 22 346 1.6 1.6 0.00 0.00 0.00 24 1015.2
20260508210732 22 164 0.0 0.0 0.00 0.00 0.00 24 1015.0
20260508210229 22 317 1.6 1.6 0.00 0.00 0.00 23 1015.1
20260508205726 21 321 6.4 9.7 0.00 0.00 0.00 24 1015.3
20260508205222 22 343 6.4 6.4 0.00 0.00 0.00 23 1015.4
20260508204718 22 292 1.6 3.2 0.00 0.00 0.00 24 1015.1
20260508204215 22 39 1.6 1.6 0.00 0.00 0.00 23 1015.0
20260508203711 21 157 1.6 1.6 0.00 0.00 0.00 22 1015.2
20260508203208 21 4 1.6 1.6 0.00 0.00 0.00 23 1015.2
20260508202704 21 322 6.4 4.8 0.00 0.00 0.00 24 1015.4
20260508202201 21 329 4.8 4.8 0.00 0.00 0.00 22 1015.6
20260508201658 21 283 3.2 3.2 0.00 0.00 0.00 25 1015.7
20260508201154 21 327 4.8 4.8 0.00 0.00 0.00 23 1015.6
20260508200651 21 324 4.8 6.4 0.00 0.00 0.00 24 1015.5
20260508200147 21 140 3.2 3.2 0.00 0.00 0.00 22 1015.7
20260508195644 21 350 8.0 9.7 0.00 0.00 0.00 23 1015.5
20260508195141 21 345 0.0 0.0 0.00 0.00 0.00 24 1015.8
20260508194637 21 20 4.8 4.8 0.00 0.00 0.00 25 1015.6
20260508194134 21 333 6.4 6.4 0.00 0.00 0.00 26 1015.7
20260508193631 21 354 1.6 1.6 0.00 0.00 0.00 26 1015.8
20260508193127 21 356 4.8 4.8 0.00 0.00 0.00 25 1015.7
20260508192624 20 11 0.0 0.0 0.00 0.00 0.00 25 1015.6
20260508192121 20 340 1.6 1.6 0.00 0.00 0.00 26 1015.8
20260508191618 20 309 4.8 4.8 0.00 0.00 0.00 27 1016.1
20260508191115 20 329 3.2 3.2 0.00 0.00 0.00 27 1016.0
20260508190613 19 347 6.4 9.7 0.00 0.00 0.00 29 1016.0
20260508190108 18 350 3.2 3.2 0.00 0.00 0.00 27 1016.1
20260508185606 19 339 9.7 11.3 0.00 0.00 0.00 27 1016.2
20260508185103 18 330 9.7 11.3 0.00 0.00 0.00 26 1016.2
20260508184600 19 347 6.4 6.4 0.00 0.00 0.00 27 1016.2
20260508184057 19 300 8.0 12.9 0.00 0.00 0.00 26 1016.2
20260508183554 18 343 0.0 1.6 0.00 0.00 0.00 28 1016.3
20260508183050 18 341 9.7 12.9 0.00 0.00 0.00 27 1016.2
20260508182546 18 327 3.2 4.8 0.00 0.00 0.00 28 1016.2
20260508182043 18 340 8.0 11.3 0.00 0.00 0.00 27 1016.1
20260508181538 18 353 6.4 9.7 0.00 0.00 0.00 29 1016.1
20260508181036 18 352 3.2 6.4 0.00 0.00 0.00 28 1016.0
20260508180532 18 155 4.8 4.8 0.00 0.00 0.00 28 1016.3
20260508180029 18 13 1.6 1.6 0.00 0.00 0.00 32 1016.2
20260508175525 18 74 1.6 1.6 0.00 0.00 0.00 37 1016.3
20260508175023 17 112 3.2 4.8 0.00 0.00 0.00 35 1016.3
20260508174520 17 28 1.6 1.6 0.00 0.00 0.00 37 1016.4
20260508174017 17 139 3.2 3.2 0.00 0.00 0.00 39 1016.4
20260508173514 17 97 3.2 3.2 0.00 0.00 0.00 37 1016.3
20260508173010 17 100 0.0 0.0 0.00 0.00 0.00 38 1016.5
20260508172507 17 105 1.6 3.2 0.00 0.00 0.00 37 1016.3
20260508172004 16 109 0.0 1.6 0.00 0.00 0.00 39 1016.3
20260508171500 16 147 3.2 3.2 0.00 0.00 0.00 39 1016.3
20260508170956 16 159 1.6 1.6 0.00 0.00 0.00 41 1016.2
20260508170454 15 159 1.6 1.6 0.00 0.00 0.00 44 1016.2
20260508165951 15 159 1.6 1.6 0.00 0.00 0.00 44 1016.5
20260508165449 14 159 0.0 0.0 0.00 0.00 0.00 44 1016.2
20260508164944 13 159 1.6 1.6 0.00 0.00 0.00 43 1016.4
20260508164442 13 159 3.2 3.2 0.00 0.00 0.00 43 1016.3
20260508163938 14 158 0.0 0.0 0.00 0.00 0.00 43 1016.5
20260508163436 13 158 1.6 1.6 0.00 0.00 0.00 43 1016.3
20260508162932 13 158 1.6 1.6 0.00 0.00 0.00 43 1016.6
20260508162430 13 158 1.6 1.6 0.00 0.00 0.00 45 1016.3
20260508161926 13 158 1.6 1.6 0.00 0.00 0.00 45 1016.2
20260508161423 13 161 3.2 4.8 0.00 0.00 0.00 44 1016.2
20260508160920 12 141 3.2 3.2 0.00 0.00 0.00 47 1016.3
20260508160420 11 141 1.6 1.6 0.00 0.00 0.00 50 1016.4
20260508155915 11 141 1.6 1.6 0.00 0.00 0.00 50 1016.2
20260508155413 11 140 1.6 1.6 0.00 0.00 0.00 50 1016.4
20260508154909 11 152 0.0 0.0 0.00 0.00 0.00 48 1016.4
20260508154407 11 148 0.0 1.6 0.00 0.00 0.00 50 1016.1
20260508153903 11 148 0.0 0.0 0.00 0.00 0.00 51 1016.3
20260508153401 10 148 3.2 1.6 0.00 0.00 0.00 49 1016.2
20260508152856 10 148 0.0 0.0 0.00 0.00 0.00 51 1016.2
20260508152353 10 148 3.2 3.2 0.00 0.00 0.00 51 1016.3